Weather History for KPUC - July, 2013

Change the Weather History Date:

Tuesday, July 9, 2013

  Actual Average Record
Temperature  
Mean Temperature 80 °F -  
Max Temperature 97 °F 87 °F 102 °F (2002)
Min Temperature 64 °F 56 °F 51 °F (1982)
Cooling Degree Days 15    
Growing Degree Days 30 (Base 50)    
Moisture  
Dew Point 32 °F    
Average Humidity 23    
Maximum Humidity 48    
Minimum Humidity 6    
Precipitation  
Precipitation 0.00 in - - ()
Sea Level Pressure  
Sea Level Pressure 29.92 in    
Wind  
Wind Speed 7 mph (NW)    
Max Wind Speed 14 mph    
Max Gust Speed 22 mph    
Visibility 10 miles    
Events      
Averages and records for this station are not official NWS values.
T = Trace of Precipitation, MM = Missing Value Source: NWS Daily Summary

Daily Weather History Graph

Daily Weather History Graph

Search for Another Location

Airport or City:

Trip Planner

Search our weather history database for the weather conditions in past years. The results will help you decide how hot, cold, wet, or windy it might be!

Date:

Astronomy

Jul. 09, 2013 Rise Set
Actual Time 6:03 AM MDT 8:52 PM MDT
Civil Twilight 5:31 AM MDT 9:24 PM MDT
Nautical Twilight 4:51 AM MDT 10:04 PM MDT
Astronomical Twilight 4:05 AM MDT 10:50 PM MDT
Moon 7:31 AM MDT (7/9) 9:32 PM MDT (7/9)
Length of Visible Light 15h 52m
Length of Day
14h 48m
New Moon, 2% of the Moon is Illuminated
Jul 9
New Moon
Jul 15
First Quarter
Jul 22
Full
Jul 29
Last Quarter
Aug 6
New

Hourly Weather History & Observations

Time (MDT) Temp. Dew Point Humidity Pressure Visibility Wind Dir Wind Speed Gust Speed Precip Events Conditions
12:53 AM 66.9 °F 42.1 °F 40% 29.96 in 10.0 mi North 10.4 mph - N/A   Clear
1:53 AM 66.9 °F 43.0 °F 42% 29.95 in 10.0 mi NNE 9.2 mph - N/A   Clear
2:53 AM 66.0 °F 44.1 °F 45% 29.92 in 10.0 mi NNE 5.8 mph - N/A   Clear
3:53 AM 66.0 °F 44.1 °F 45% 29.94 in 10.0 mi NNE 5.8 mph - N/A   Clear
4:53 AM 64.0 °F 44.1 °F 48% 29.96 in 10.0 mi NNE 3.5 mph - N/A   Clear
5:53 AM 64.9 °F 42.1 °F 43% 29.97 in 10.0 mi North 3.5 mph - N/A   Clear
6:53 AM 66.9 °F 43.0 °F 42% 29.98 in 10.0 mi NE 3.5 mph - N/A   Clear
7:53 AM 71.1 °F 42.1 °F 35% 29.98 in 10.0 mi Calm Calm - N/A   Clear
8:53 AM 77.0 °F 43.0 °F 30% 29.98 in 10.0 mi Calm Calm - N/A   Clear
9:53 AM 80.1 °F 46.0 °F 30% 29.99 in 10.0 mi South 8.1 mph - N/A   Clear
10:53 AM 84.9 °F 45.0 °F 25% 29.96 in 10.0 mi SE 9.2 mph - N/A   Clear
11:53 AM 89.1 °F 32.0 °F 13% 29.96 in 10.0 mi Calm Calm - N/A   Clear
12:53 PM 91.9 °F 26.1 °F 9% 29.94 in 10.0 mi WSW 6.9 mph - N/A   Clear
1:53 PM 95.0 °F 24.1 °F 8% 29.91 in 10.0 mi SW 8.1 mph 20.7 mph N/A   Clear
2:53 PM 93.0 °F 23.0 °F 8% 29.90 in 10.0 mi Variable 3.5 mph - N/A   Clear
3:53 PM 96.1 °F 21.9 °F 7% 29.87 in 10.0 mi SSW 12.7 mph 19.6 mph N/A   Clear
4:53 PM 96.1 °F 19.9 °F 6% 29.88 in 10.0 mi West 13.8 mph 20.7 mph N/A   Clear
5:53 PM 93.9 °F 19.0 °F 7% 29.87 in 10.0 mi West 10.4 mph 21.9 mph N/A   Clear
6:53 PM 93.0 °F 19.0 °F 7% 29.85 in 10.0 mi West 11.5 mph 18.4 mph N/A   Clear
7:53 PM 90.0 °F 18.0 °F 7% 29.85 in 10.0 mi WNW 10.4 mph - N/A   Clear
8:53 PM 84.9 °F 19.9 °F 9% 29.85 in 10.0 mi WNW 6.9 mph - N/A   Clear
9:53 PM 79.0 °F 21.0 °F 12% 29.88 in 10.0 mi North 5.8 mph - N/A   Clear
10:53 PM 75.9 °F 21.9 °F 13% 29.88 in 10.0 mi WNW 5.8 mph - N/A   Clear
11:53 PM 68.0 °F 26.1 °F 21% 29.90 in 10.0 mi NNE 3.5 mph - N/A   Clear